Fergus Falls, MN

3:26 AM CST on November 18, 2019 (GMT -0600)
Fergus Falls Municipal-Mickelson

Weather History for KFFM - September, 2019

Change the Weather History Date:

Friday, September 6, 2019

  Actual Average Record
Temperature  
Mean Temperature 61 °F -  
Max Temperature 71 °F 74 °F 93 °F (1978)
Min Temperature 51 °F 51 °F 31 °F (1956)
Degree Days  
Heating Degree Days 4    
Growing Degree Days 11 (Base 50)    
Moisture  
Dew Point 56 °F    
Average Humidity 83    
Maximum Humidity 100    
Minimum Humidity 53    
Precipitation  
Precipitation 0.00 in - - ()
Sea Level Pressure  
Sea Level Pressure 30.13 in    
Wind  
Wind Speed 4 mph ()    
Max Wind Speed 15 mph    
Max Gust Speed 23 mph    
Visibility 7.5 miles    
Events Fog    
Averages and records for this station are not official NWS values.
T = Trace of Precipitation, MM = Missing Value Source: Averaged Metar Reports

Daily Weather History Graph

Daily Weather History Graph

Search for Another Location

Airport or City:

Astronomy

Sep. 06, 2019 Rise Set
Actual Time 6:51 AM CDT 7:54 PM CDT
Civil Twilight 6:20 AM CDT 8:24 PM CDT
Nautical Twilight 5:43 AM CDT 9:01 PM CDT
Astronomical Twilight 5:04 AM CDT 9:40 PM CDT
Moon 3:27 PM CDT (9/6) No Moon Set
Length of Visible Light 14h 04m
Length of Day
13h 03m
First Quarter, 56% of the Moon is Illuminated
Sep 6
First Quarter
Sep 13
Full
Sep 21
Last Quarter
Sep 28
New
Oct 5
First Quarter

Hourly Weather History & Observations

Time (CDT) Temp. Dew Point Humidity Pressure Visibility Wind Dir Wind Speed Gust Speed Precip Events Conditions
12:15 AM 59.0 °F 55.4 °F 88% 30.07 in 10.0 mi NNE 5.8 mph - N/A   Clear
12:37 AM 57.2 °F 55.4 °F 94% 30.07 in 10.0 mi NNE 5.8 mph - N/A   Clear
12:56 AM 57.2 °F 55.4 °F 94% 30.08 in 10.0 mi Calm Calm - N/A   Clear
1:15 AM 57.2 °F 55.4 °F 94% 30.09 in 10.0 mi Calm Calm - N/A   Clear
1:16 AM 57.2 °F 55.4 °F 94% 30.09 in 10.0 mi Calm Calm - N/A   Clear
1:35 AM 55.4 °F 53.6 °F 94% 30.09 in 10.0 mi NW 4.6 mph - N/A   Clear
1:36 AM 55.4 °F 53.6 °F 94% 30.09 in 10.0 mi NW 4.6 mph - N/A   Clear
1:58 AM 53.6 °F 51.8 °F 94% 30.10 in 10.0 mi West 3.5 mph - N/A   Clear
2:16 AM 51.8 °F 51.8 °F 100% 30.11 in 10.0 mi WNW 5.8 mph - N/A   Clear
2:35 AM 51.8 °F 51.8 °F 100% 30.11 in 7.0 mi WNW 4.6 mph - N/A   Clear
2:55 AM 51.8 °F 51.8 °F 100% 30.12 in 0.2 mi WNW 5.8 mph - N/A Fog Fog
2:56 AM 51.8 °F 51.8 °F 100% 30.12 in 0.2 mi WNW 5.8 mph - N/A Fog Fog
3:19 AM 51.8 °F 51.8 °F 100% 30.12 in 0.2 mi West 3.5 mph - N/A Fog Fog
3:36 AM 53.6 °F 53.6 °F 100% 30.12 in 0.2 mi NW 4.6 mph - N/A Fog Fog
3:56 AM 55.4 °F 55.4 °F 100% 30.12 in 0.2 mi Calm Calm - N/A Fog Fog
4:15 AM 55.4 °F 55.4 °F 100% 30.13 in 0.2 mi NNW 3.5 mph - N/A Fog Fog
4:35 AM 55.4 °F 55.4 °F 100% 30.13 in 0.2 mi Calm Calm - N/A Fog Fog
4:39 AM 55.4 °F 55.4 °F 100% 30.13 in 0.2 mi North 3.5 mph - N/A Fog Fog
4:58 AM 57.2 °F 57.2 °F 100% 30.12 in 0.2 mi Calm Calm - N/A Fog Fog
5:15 AM 57.2 °F 57.2 °F 100% 30.13 in 0.2 mi NNW 4.6 mph - N/A Fog Fog
5:35 AM 57.2 °F 57.2 °F 100% 30.13 in 1.0 mi Calm Calm - N/A   Overcast
5:36 AM 57.2 °F 57.2 °F 100% 30.13 in 1.2 mi Calm Calm - N/A   Overcast
5:55 AM 57.2 °F 57.2 °F 100% 30.13 in 2.5 mi Calm Calm - N/A   Mostly Cloudy
5:56 AM 57.2 °F 57.2 °F 100% 30.13 in 2.5 mi Calm Calm - N/A   Mostly Cloudy
6:18 AM 55.4 °F 55.4 °F 100% 30.13 in 1.0 mi Calm Calm - N/A   Mostly Cloudy
6:36 AM 55.4 °F 55.4 °F 100% 30.14 in 5.0 mi North 3.5 mph - N/A   Clear
6:55 AM 55.4 °F 55.4 °F 100% 30.14 in 7.0 mi Calm Calm - N/A   Clear
6:56 AM 55.4 °F 55.4 °F 100% 30.14 in 7.0 mi Calm Calm - N/A   Clear
7:15 AM 55.4 °F 55.4 °F 100% 30.15 in 7.0 mi Calm Calm - N/A   Clear
7:16 AM 55.4 °F 55.4 °F 100% 30.15 in 7.0 mi Calm Calm - N/A   Clear
7:38 AM 53.6 °F 53.6 °F 100% 30.15 in 0.2 mi Calm Calm - N/A Fog Fog
7:56 AM 53.6 °F 53.6 °F 100% 30.16 in 0.2 mi Calm Calm - N/A Fog Fog
8:15 AM 53.6 °F 53.6 °F 100% 30.16 in 0.2 mi Calm Calm - N/A Fog Fog
8:16 AM 53.6 °F 53.6 °F 100% 30.16 in 0.2 mi Calm Calm - N/A Fog Fog
8:35 AM 55.4 °F 55.4 °F 100% 30.17 in 0.2 mi Calm Calm - N/A Fog Fog
8:36 AM 55.4 °F 55.4 °F 100% 30.17 in 0.2 mi Calm Calm - N/A Fog Fog
8:55 AM 55.4 °F 55.4 °F 100% 30.17 in 0.2 mi Calm Calm - N/A Fog Fog
8:59 AM 55.4 °F 55.4 °F 100% 30.17 in 0.2 mi Calm Calm - N/A Fog Fog
9:18 AM 57.2 °F 57.2 °F 100% 30.18 in 0.2 mi Calm Calm - N/A Fog Fog
9:35 AM 59.0 °F 59.0 °F 100% 30.18 in 10.0 mi West 3.5 mph - N/A   Mostly Cloudy
9:55 AM 60.8 °F 60.8 °F 100% 30.17 in 10.0 mi Calm Calm - N/A   Scattered Clouds
9:56 AM 60.8 °F 60.8 °F 100% 30.17 in 10.0 mi Calm Calm - N/A   Scattered Clouds
10:16 AM 62.6 °F 62.6 °F 100% 30.17 in 10.0 mi West 3.5 mph - N/A   Clear
10:39 AM 64.4 °F 60.8 °F 88% 30.17 in 10.0 mi West 4.6 mph - N/A   Scattered Clouds
10:56 AM 66.2 °F 60.8 °F 83% 30.16 in 10.0 mi West 4.6 mph - N/A   Scattered Clouds
11:16 AM 68.0 °F 60.8 °F 78% 30.16 in 10.0 mi WSW 8.1 mph - N/A   Clear
11:35 AM 69.8 °F 62.6 °F 78% 30.15 in 10.0 mi West 10.4 mph - N/A   Clear
11:55 AM 71.6 °F 62.6 °F 73% 30.14 in 10.0 mi West 12.7 mph - N/A   Clear
11:59 AM 71.6 °F 62.6 °F 73% 30.14 in 10.0 mi West 11.5 mph 16.1 mph N/A   Scattered Clouds
12:17 PM 71.6 °F 62.6 °F 73% 30.14 in 10.0 mi WNW 11.5 mph 16.1 mph N/A   Scattered Clouds
12:36 PM 69.8 °F 62.6 °F 78% 30.14 in 10.0 mi NW 11.5 mph - N/A   Scattered Clouds
12:55 PM 71.6 °F 62.6 °F 73% 30.14 in 10.0 mi NW 12.7 mph - N/A   Scattered Clouds
12:56 PM 71.6 °F 62.6 °F 73% 30.14 in 10.0 mi NW 11.5 mph - N/A   Scattered Clouds
1:15 PM 69.8 °F 60.8 °F 73% 30.14 in 10.0 mi NW 9.2 mph - N/A   Scattered Clouds
1:19 PM 71.6 °F 60.8 °F 69% 30.14 in 10.0 mi NW 12.7 mph 16.1 mph N/A   Scattered Clouds
1:37 PM 69.8 °F 60.8 °F 73% 30.14 in 10.0 mi NW 12.7 mph 17.3 mph N/A   Scattered Clouds
1:55 PM 71.6 °F 60.8 °F 69% 30.14 in 10.0 mi NW 11.5 mph - N/A   Mostly Cloudy
2:15 PM 71.6 °F 59.0 °F 64% 30.13 in 10.0 mi NW 10.4 mph 18.4 mph N/A   Scattered Clouds
2:16 PM 71.6 °F 59.0 °F 64% 30.13 in 10.0 mi NNW 10.4 mph 18.4 mph N/A   Scattered Clouds
2:35 PM 71.6 °F 59.0 °F 64% 30.13 in 10.0 mi NNW 11.5 mph 18.4 mph N/A   Scattered Clouds
2:36 PM 71.6 °F 59.0 °F 64% 30.13 in 10.0 mi NNW 11.5 mph 18.4 mph N/A   Scattered Clouds
2:59 PM 71.6 °F 59.0 °F 64% 30.13 in 10.0 mi NNW 12.7 mph 16.1 mph N/A   Scattered Clouds
3:16 PM 71.6 °F 57.2 °F 60% 30.13 in 10.0 mi NNW 15.0 mph 18.4 mph N/A   Scattered Clouds
3:36 PM 71.6 °F 57.2 °F 60% 30.13 in 10.0 mi NW 10.4 mph 13.8 mph N/A   Clear
3:55 PM 71.6 °F 55.4 °F 57% 30.12 in 10.0 mi NNW 15.0 mph 23.0 mph N/A   Clear
3:56 PM 71.6 °F 55.4 °F 57% 30.12 in 10.0 mi NNW 12.7 mph 21.9 mph N/A   Clear
4:15 PM 71.6 °F 55.4 °F 57% 30.12 in 10.0 mi NNW 11.5 mph 17.3 mph N/A   Clear
4:19 PM 71.6 °F 55.4 °F 57% 30.12 in 10.0 mi NNW 11.5 mph 17.3 mph N/A   Clear
4:38 PM 69.8 °F 55.4 °F 60% 30.12 in 10.0 mi North 9.2 mph - N/A   Clear
4:55 PM 71.6 °F 53.6 °F 53% 30.12 in 10.0 mi NNW 12.7 mph 18.4 mph N/A   Clear
5:15 PM 69.8 °F 53.6 °F 56% 30.12 in 10.0 mi North 11.5 mph 18.4 mph N/A   Clear
5:16 PM 69.8 °F 53.6 °F 56% 30.12 in 10.0 mi NNW 13.8 mph 18.4 mph N/A   Clear
5:35 PM 71.6 °F 53.6 °F 53% 30.12 in 10.0 mi North 9.2 mph 18.4 mph N/A   Clear
5:58 PM 69.8 °F 53.6 °F 56% 30.12 in 10.0 mi NNW 9.2 mph - N/A   Clear
6:16 PM 69.8 °F 53.6 °F 56% 30.12 in 10.0 mi NNW 10.4 mph - N/A   Clear
6:35 PM 69.8 °F 53.6 °F 56% 30.12 in 10.0 mi NNW 11.5 mph - N/A   Clear
6:55 PM 68.0 °F 53.6 °F 60% 30.11 in 10.0 mi North 8.1 mph - N/A   Clear
6:56 PM 68.0 °F 53.6 °F 60% 30.11 in 10.0 mi North 8.1 mph - N/A   Clear
7:18 PM 64.4 °F 53.6 °F 68% 30.12 in 10.0 mi NNW 5.8 mph - N/A   Clear
7:36 PM 62.6 °F 53.6 °F 72% 30.12 in 10.0 mi Calm Calm - N/A   Clear
7:55 PM 62.6 °F 53.6 °F 72% 30.12 in 10.0 mi Calm Calm - N/A   Clear
8:15 PM 60.8 °F 53.6 °F 77% 30.13 in 10.0 mi Calm Calm - N/A   Clear
8:16 PM 60.8 °F 53.6 °F 77% 30.13 in 10.0 mi Calm Calm - N/A   Clear
8:35 PM 60.8 °F 53.6 °F 77% 30.13 in 10.0 mi North 3.5 mph - N/A   Clear
8:57 PM 60.8 °F 53.6 °F 77% 30.13 in 10.0 mi Calm Calm - N/A   Clear
9:15 PM 59.0 °F 51.8 °F 77% 30.13 in 10.0 mi Calm Calm - N/A   Clear
9:35 PM 59.0 °F 53.6 °F 82% 30.13 in 10.0 mi Calm Calm - N/A   Clear
9:36 PM 59.0 °F 53.6 °F 82% 30.13 in 10.0 mi Calm Calm - N/A   Clear
9:55 PM 60.8 °F 53.6 °F 77% 30.13 in 10.0 mi Calm Calm - N/A   Clear
9:56 PM 60.8 °F 53.6 °F 77% 30.13 in 10.0 mi Calm Calm - N/A   Clear
10:19 PM 59.0 °F 53.6 °F 82% 30.13 in 10.0 mi Calm Calm - N/A   Clear
10:36 PM 59.0 °F 53.6 °F 82% 30.13 in 10.0 mi Calm Calm - N/A   Clear
10:56 PM 57.2 °F 53.6 °F 88% 30.13 in 10.0 mi Calm Calm - N/A   Clear
11:15 PM 57.2 °F 53.6 °F 88% 30.14 in 10.0 mi Calm Calm - N/A   Clear
11:16 PM 57.2 °F 53.6 °F 88% 30.14 in 10.0 mi Calm Calm - N/A   Clear
11:35 PM 57.2 °F 53.6 °F 88% 30.14 in 10.0 mi Calm Calm - N/A   Clear
11:39 PM 55.4 °F 51.8 °F 88% 30.14 in 10.0 mi Calm Calm - N/A   Clear
11:57 PM 55.4 °F 51.8 °F 88% 30.14 in 10.0 mi Calm Calm - N/A   Clear